Location: Carlingford
(46.7848°N, 67.7474°W)
Time: 11:41:44
(UTC+00:00)

N. Korean satellite - Pass Details

Date: 02 December 2022
Orbit: 407 x 441 km, 97.3° (Epoch: 05 February)

Event Time Altitude Azimuth Distance (km) Brightness Sun altitude
Rises 21:25:38 0° 186° (S) 2,440 10.6 -7.1°
Reaches altitude 10° 21:27:46 10° 196° (SSW) 1,585 9.8 -7.4°
Maximum altitude 21:30:54 34° 263° (W) 782 8.4 -7.9°
Drops below altitude 10° 21:34:06 10° 330° (NNW) 1,626 9.3 -8.4°
Sets 21:36:19 0° 340° (NNW) 2,516 10.2 -8.7°
